Location: Columbus
(35.2256°N, 82.1549°W)
Time: 18:16:44
(UTC-05:00)

Envisat - Pass Details

Date: 05 December 2021
Orbit: 764 x 766 km, 98.2° (Epoch: 21 January)

Event Time Altitude Azimuth Distance (km) Brightness Sun altitude
Rises 04:58:04 0° 19° (NNE) 3,236 6.4 -28.8°
Reaches altitude 10° 05:00:29 10° 26° (NNE) 2,305 5.6 -28.3°
Maximum altitude 05:05:21 46° 99° (E) 1,020 4.0 -27.4°
Drops below altitude 10° 05:10:12 10° 172° (S) 2,290 5.6 -26.4°
Sets 05:12:34 0° 179° (S) 3,211 6.4 -25.9°
